Wind_Speed
22 20 19 15 12 8 6 13 15 15 18 18 16 18 18 11 11 13 14 17 16 13 7 5 8 10 10 8 10 13 19 15 17 15 11 10 7 7 3 2 4 5 7 7
21 20 18 17 13 14 12 9 13 14 15 11 14 15 16 10 8 9 11 12 14 14 12 10 4 7 11 12 13 14 17 18 18 20 16 15 12 7 3 2 3 7 9 7
20 19 17 16 15 13 11 9 12 16 12 10 11 13 15 12 5 8 9 11 10 11 12 11 9 4 6 7 10 13 17 22 21 24 21 16 18 10 5 4 6 9 7 8
19 17 15 13 13 8 7 8 9 13 14 13 10 9 11 13 5 3 2 4 9 8 7 9 10 9 7 2 13 15 18 14 10 15 19 13 11 9 7 6 8 10 8 8
22 20 16 14 9 5 2 9 7 7 8 8 8 7 7 8 9 11 7 4 6 10 6 2 3 7 8 7 5 12 11 6 8 16 16 10 10 8 7 7 9 9 8 7
27 21 15 14 12 9 5 5 4 6 9 8 6 9 7 6 6 11 5 3 1 6 7 6 4 2 2 3 6 9 9 9 10 9 9 7 8 7 7 7 4 5 6 8
23 22 21 20 13 7 4 4 4 4 8 6 9 8 2 3 3 6 5 6 2 2 9 8 8 8 4 1 1 4 6 7 6 6 6 7 5 2 2 5 6 6 6 7
15 9 16 15 11 5 5 6 2 7 4 5 10 5 5 8 7 6 5 8 7 6 10 6 9 11 10 7 5 5 5 4 2 3 1 1 1 2 3 4 6 8 9 9
19 12 10 12 7 6 8 8 12 13 8 9 9 5 5 11 11 17 15 9 11 15 10 12 9 9 6 4 3 4 5 5 3 2 3 4 7 7 6 4 6 10 10 9
17 12 12 16 10 9 9 16 8 10 10 11 15 17 13 7 13 21 19 16 19 18 17 14 10 10 9 7 6 3 4 6 6 7 7 8 8 10 10 4 6 8 10 11
15 18 15 14 12 5 14 10 12 13 14 16 18 19 21 16 15 21 15 11 23 23 24 22 14 12 11 9 6 5 5 7 9 9 10 11 11 7 7 4 6 6 6 12
11 14 16 12 13 7 12 13 16 19 19 17 20 17 15 23 26 19 20 8 20 27 32 18 17 13 10 8 7 6 6 8 8 7 7 4 4 8 9 8 9 9 10 12
14 16 9 16 16 11 11 14 17 18 22 23 23 22 24 28 23 13 11 11 21 32 22 23 17 14 10 8 7 7 6 8 9 11 10 11 10 11 11 10 10 8 7 11
18 17 16 13 9 14 19 20 17 17 17 20 20 19 22 21 16 5 8 10 6 25 29 18 14 15 12 10 6 4 6 10 11 13 14 16 14 12 12 13 13 10 8 8
19 21 20 19 20 24 22 21 20 20 20 21 20 19 20 17 12 2 1 2 8 21 18 16 12 11 8 7 8 7 7 10 12 13 15 15 15 15 14 14 14 13 12 10
26 22 23 25 27 28 29 28 21 19 18 22 23 18 19 15 11 1 9 4 6 11 14 15 14 12 14 13 13 10 9 11 14 14 14 17 18 17 15 14 14 16 15 14
35 33 31 31 29 24 20 23 24 22 22 24 25 24 26 15 10 3 8 10 12 13 15 17 17 17 19 17 15 14 12 13 14 18 17 18 15 15 14 14 14 15 15 16
27 28 26 29 27 25 23 18 23 23 23 24 22 22 19 15 14 3 5 8 13 17 14 17 20 23 22 19 15 11 12 16 16 18 16 14 15 14 13 14 15 15 16 17
37 35 35 33 35 31 17 19 23 22 21 16 17 23 18 10 7 4 14 11 13 20 23 21 19 21 18 16 14 15 16 16 16 15 13 14 14 14 13 13 13 12 12 14
38 39 38 38 34 29 20 23 27 31 28 26 26 20 12 11 6 4 8 13 14 18 21 25 21 20 16 13 12 14 15 16 16 12 12 12 14 14 15 13 12 12 14 13
46 42 41 42 42 39 27 29 28 30 30 28 24 22 18 15 18 15 13 13 19 20 23 22 17 14 16 16 13 14 15 15 14 13 14 14 15 17 16 14 14 16 15 14
52 54 48 48 48 49 43 39 38 38 33 28 26 26 23 17 16 22 16 18 19 19 19 16 15 13 15 17 12 17 14 14 14 14 15 16 16 19 18 17 17 17 19 18
51 54 58 58 54 51 51 50 47 45 41 37 35 31 30 23 18 21 19 19 20 19 18 13 13 14 10 8 14 17 11 11 14 15 17 17 18 19 19 19 20 21 21 21
54 54 56 56 60 63 59 55 52 49 48 43 40 40 37 31 26 25 19 20 20 19 19 14 13 15 17 16 18 15 12 13 14 15 17 17 18 18 19 21 22 23 23 23
56 56 57 58 58 58 61 65 64 57 52 49 43 41 42 42 32 26 24 22 18 21 20 15 14 17 19 18 20 16 15 15 16 16 15 16 17 17 18 20 21 22 23 23
55 57 58 59 59 58 58 59 59 59 60 59 54 49 48 45 38 30 26 29 21 21 25 18 15 17 19 22 19 16 16 17 18 15 15 15 15 16 18 20 21 22 22 23
Wind_Direction
106 109 123 114 103 89 87 108 91 85 71 72 71 53 28 31 41 49 59 61 61 62 93 192 213 209 205 191 188 195 209 213 195 188 183 180 194 183 188 320 300 324 333 330
134 132 127 126 112 111 111 97 69 48 36 58 60 53 35 32 54 51 49 51 58 64 68 89 141 213 208 208 201 201 202 211 201 196 195 195 200 195 205 236 280 305 312 315
154 150 129 134 132 125 107 75 49 35 47 53 67 51 39 34 30 50 61 53 47 58 71 70 75 116 234 235 217 207 203 215 218 210 206 208 224 204 184 220 291 294 304 303
159 150 147 150 146 153 140 103 68 60 66 59 56 43 24 15 340 333 354 39 33 33 55 75 78 70 60 256 229 211 217 230 257 225 212 192 187 210 207 253 283 293 299 309
174 170 180 190 179 208 232 112 87 29 27 25 359 37 17 0 328 285 299 308 18 7 357 38 109 92 78 77 78 187 203 220 196 158 165 173 188 215 259 276 286 294 309 307
185 190 207 223 218 226 267 271 328 336 326 331 354 356 25 339 327 267 301 286 246 335 338 321 321 60 46 84 110 128 136 158 149 154 159 186 215 234 255 262 281 309 327 314
190 204 224 225 236 206 175 218 61 269 281 347 335 16 347 270 254 265 285 255 189 312 322 308 303 305 322 291 205 150 153 165 180 188 182 192 183 176 259 301 325 325 327 322
171 115 129 137 154 169 161 202 309 279 297 21 39 48 89 103 60 16 284 280 278 258 300 282 288 291 292 268 232 230 220 214 194 216 246 261 229 202 225 270 289 288 294 299
138 139 174 159 151 182 198 232 236 273 283 285 312 359 44 16 52 14 349 267 244 236 249 258 266 222 193 197 221 227 250 249 249 247 215 251 258 240 229 238 275 276 267 267
165 154 168 191 206 209 234 226 259 274 299 294 305 311 327 354 358 7 353 245 237 236 231 242 225 200 187 185 198 219 270 270 257 261 268 272 271 277 240 275 293 279 259 260
173 186 182 201 203 269 243 246 266 281 286 290 298 300 311 325 329 340 350 243 250 240 237 232 215 196 181 176 183 208 247 267 265 267 267 270 279 316 22 280 278 291 283 273
186 202 211 219 227 259 279 274 270 267 272 286 290 295 292 301 310 317 313 281 233 235 239 224 203 209 203 200 190 205 232 265 267 272 279 281 314 302 289 285 278 272 276 286
219 221 235 215 227 239 266 281 294 284 261 281 284 292 296 304 324 334 302 320 231 229 243 169 179 194 193 212 208 222 239 259 259 262 262 265 274 271 274 287 291 277 263 278
240 229 240 247 257 272 281 287 274 281 295 283 282 294 309 319 343 3 300 350 314 203 168 164 180 198 200 203 210 225 243 245 250 262 268 265 266 267 274 283 281 286 281 275
222 224 235 250 255 270 284 282 272 264 272 282 286 297 308 313 329 46 186 97 95 163 171 176 204 216 218 260 254 236 252 262 268 261 255 261 264 263 266 272 281 293 295 287
226 229 245 252 258 272 277 271 253 252 256 266 282 302 333 303 302 147 196 179 178 180 190 208 217 219 236 246 249 252 256 257 263 272 276 279 269 261 258 263 274 284 288 286
244 233 256 252 264 269 282 257 235 245 256 261 272 285 305 314 311 333 193 224 199 202 207 207 213 232 242 244 244 244 247 254 253 255 258 260 263 268 278 286 292 289 285 278
251 258 263 261 267 264 288 258 236 238 247 259 273 284 308 313 304 251 203 199 198 211 220 220 225 234 240 238 243 256 249 252 254 255 260 268 274 270 272 276 281 282 281 279
251 253 253 250 259 265 268 245 228 232 240 246 256 283 303 311 307 312 208 221 223 220 232 244 242 235 230 229 236 243 249 257 257 262 270 267 265 261 262 268 276 288 291 281
249 249 246 252 243 243 248 248 238 231 231 239 255 272 286 299 253 304 258 237 233 232 236 247 247 242 239 239 242 253 261 260 264 268 271 273 269 268 271 279 289 293 290 290
242 238 239 246 241 250 222 228 236 238 238 246 247 255 268 285 291 284 305 256 238 238 245 257 260 254 255 250 259 256 262 270 276 280 283 285 285 279 283 293 303 306 304 301
241 241 237 239 242 244 243 240 228 232 227 238 245 253 257 267 271 280 283 274 251 240 247 246 258 270 255 254 258 269 261 272 285 291 287 282 281 278 284 292 297 300 301 301
246 241 241 240 243 248 249 244 243 233 246 254 253 246 254 268 280 291 293 265 259 251 250 247 259 251 258 264 273 263 275 295 293 286 281 281 281 281 283 288 292 294 296 300
248 248 245 244 243 243 244 245 241 240 246 245 248 242 246 260 273 276 282 268 254 253 268 266 254 252 263 267 271 278 292 298 302 295 284 280 281 285 288 288 288 290 293 296
250 249 246 244 245 243 241 242 242 240 243 243 242 240 247 255 259 265 271 258 274 258 263 259 252 264 269 270 269 276 288 296 301 295 290 282 282 286 288 291 294 294 296 298
248 248 249 248 245 242 242 241 242 245 243 240 243 245 245 248 254 251 251 262 269 261 257 263 253 251 257 262 270 279 288 295 296 296 296 294 292 292 292 293 294 296 298 299
Height
5889 5892 5895 5897 5898 5898 5898 5899 5899 5898 5899 5898 5897 5897 5898 5898 5898 5896 5895 5894 5891 5889 5888 5889 5891 5892 5893 5895 5896 5898 5902 5904 5906 5908 5911 5913 5915 5917 5919 5921 5923 5923 5924 5924
5893 5895 5898 5899 5900 5900 5900 5901 5901 5901 5901 5900 5899 5900 5899 5900 5898 5897 5896 5896 5895 5892 5891 5889 5890 5891 5893 5894 5897 5898 5901 5903 5905 5909 5910 5912 5914 5917 5919 5921 5922 5923 5923 5922
5894 5897 5898 5900 5900 5901 5902 5901 5901 5901 5901 5901 5901 5901 5901 5901 5899 5898 5898 5898 5898 5896 5894 5892 5892 5891 5891 5891 5894 5897 5899 5901 5904 5906 5908 5912 5915 5916 5918 5920 5920 5920 5920 5919
5895 5897 5899 5900 5901 5902 5901 5901 5901 5902 5903 5902 5902 5903 5902 5901 5901 5900 5899 5898 5900 5899 5896 5894 5894 5893 5892 5893 5894 5897 5899 5901 5903 5905 5907 5910 5913 5915 5917 5918 5918 5918 5917 5916
5895 5897 5899 5900 5901 5902 5903 5902 5901 5902 5902 5903 5903 5904 5903 5902 5901 5900 5901 5900 5899 5899 5899 5897 5897 5894 5893 5894 5894 5896 5898 5900 5901 5904 5908 5910 5913 5914 5914 5915 5917 5917 5915 5914
5894 5898 5899 5900 5900 5902 5903 5902 5902 5902 5903 5903 5902 5903 5902 5902 5900 5899 5900 5899 5898 5898 5898 5898 5897 5895 5895 5895 5896 5897 5899 5902 5904 5906 5907 5911 5913 5913 5915 5915 5915 5915 5914 5913
5895 5896 5897 5897 5900 5902 5902 5903 5902 5904 5903 5903 5902 5901 5900 5898 5898 5899 5900 5898 5897 5896 5899 5899 5898 5898 5897 5896 5896 5899 5901 5903 5905 5907 5908 5910 5911 5912 5914 5915 5914 5913 5912 5912
5893 5895 5897 5898 5900 5901 5901 5902 5902 5902 5902 5903 5902 5903 5902 5900 5900 5899 5899 5898 5897 5897 5898 5899 5898 5898 5898 5899 5899 5900 5900 5901 5903 5907 5910 5910 5912 5912 5911 5911 5912 5911 5911 5912
5890 5894 5896 5898 5900 5901 5901 5902 5902 5902 5902 5902 5903 5903 5903 5902 5901 5900 5898 5895 5893 5894 5896 5897 5898 5898 5898 5900 5900 5901 5902 5904 5905 5906 5907 5909 5910 5910 5910 5908 5908 5908 5908 5909
5892 5894 5895 5897 5898 5899 5899 5900 5901 5901 5900 5900 5900 5900 5900 5900 5899 5897 5895 5892 5891 5892 5892 5894 5896 5897 5897 5898 5899 5900 5901 5903 5904 5905 5906 5907 5909 5910 5908 5907 5905 5906 5905 5905
5889 5892 5895 5896 5896 5897 5898 5897 5898 5898 5899 5898 5899 5898 5897 5897 5896 5895 5892 5890 5888 5889 5889 5891 5895 5896 5896 5897 5897 5898 5899 5901 5902 5903 5904 5905 5908 5908 5907 5905 5905 5904 5903 5902
5888 5890 5891 5894 5894 5894 5895 5896 5897 5897 5897 5897 5896 5896 5895 5893 5893 5892 5889 5884 5883 5884 5886 5889 5893 5894 5895 5895 5895 5896 5897 5899 5899 5900 5901 5903 5904 5903 5905 5904 5903 5903 5900 5900
5887 5888 5889 5890 5892 5893 5893 5894 5893 5894 5894 5894 5894 5894 5891 5890 5888 5886 5884 5880 5878 5878 5882 5886 5890 5893 5893 5894 5893 5894 5896 5897 5899 5900 5900 5901 5902 5902 5903 5901 5900 5900 5898 5897
5883 5884 5886 5888 5890 5891 5891 5892 5891 5892 5892 5892 5891 5890 5889 5887 5886 5883 5881 5876 5871 5876 5882 5885 5889 5891 5892 5892 5891 5892 5894 5897 5897 5898 5899 5901 5901 5901 5900 5898 5897 5896 5895 5895
5880 5880 5881 5884 5886 5887 5887 5887 5887 5888 5889 5889 5889 5889 5888 5885 5885 5883 5882 5881 5878 5881 5885 5886 5888 5888 5888 5890 5891 5891 5892 5894 5896 5897 5898 5899 5898 5896 5896 5895 5894 5893 5892 5892
5875 5876 5877 5879 5881 5882 5882 5883 5883 5884 5885 5886 5885 5887 5887 5885 5882 5883 5884 5884 5884 5884 5885 5887 5888 5889 5890 5891 5892 5891 5892 5893 5895 5895 5895 5895 5895 5895 5893 5892 5891 5891 5890 5888
5869 5870 5871 5872 5874 5876 5876 5878 5879 5881 5882 5884 5884 5885 5885 5884 5882 5881 5882 5883 5884 5885 5886 5886 5888 5888 5889 5890 5891 5891 5892 5893 5893 5895 5892 5891 5891 5890 5888 5887 5886 5886 5885 5884
5862 5864 5865 5867 5868 5869 5872 5872 5874 5877 5879 5880 5880 5881 5882 5882 5880 5881 5880 5881 5883 5885 5886 5886 5885 5886 5888 5888 5889 5888 5890 5892 5892 5892 5890 5887 5887 5885 5884 5883 5883 5882 5881 5880
5854 5857 5858 5860 5862 5864 5866 5867 5869 5871 5874 5876 5877 5877 5878 5879 5878 5878 5879 5879 5879 5879 5880 5880 5883 5885 5884 5884 5884 5886 5888 5889 5889 5888 5885 5884 5884 5882 5881 5880 5880 5879 5878 5876
5845 5847 5848 5850 5852 5855 5861 5861 5864 5865 5867 5868 5870 5873 5874 5875 5877 5877 5877 5877 5877 5877 5878 5877 5879 5881 5880 5881 5882 5883 5884 5885 5885 5881 5880 5880 5880 5879 5878 5877 5877 5876 5875 5873
5833 5833 5836 5838 5840 5845 5851 5856 5857 5858 5864 5864 5866 5868 5869 5871 5873 5874 5875 5874 5873 5874 5872 5873 5875 5876 5876 5878 5879 5878 5879 5878 5876 5874 5874 5874 5874 5875 5874 5873 5873 5871 5870 5868
5818 5820 5824 5827 5829 5831 5841 5845 5848 5851 5853 5857 5861 5863 5865 5867 5869 5869 5872 5869 5870 5870 5871 5871 5871 5872 5874 5875 5874 5876 5873 5871 5870 5869 5869 5869 5869 5869 5869 5869 5868 5866 5865 5862
5801 5804 5811 5815 5815 5819 5826 5830 5837 5841 5844 5848 5854 5857 5859 5861 5863 5865 5865 5866 5866 5867 5866 5867 5866 5868 5866 5868 5870 5871 5868 5866 5866 5865 5865 5864 5865 5864 5864 5864 5862 5861 5859 5858
5784 5788 5792 5799 5798 5803 5810 5815 5821 5829 5834 5839 5843 5848 5851 5854 5858 5859 5860 5861 5862 5862 5861 5861 5863 5864 5864 5865 5866 5865 5862 5863 5862 5861 5861 5859 5859 5858 5859 5858 5856 5855 5854 5852
5765 5770 5774 5779 5782 5789 5793 5799 5805 5812 5820 5827 5833 5838 5841 5845 5850 5854 5854 5855 5857 5857 5856 5858 5859 5858 5860 5861 5862 5860 5859 5859 5858 5858 5856 5855 5854 5854 5854 5852 5851 5850 5848 5847
5747 5750 5754 5758 5764 5770 5776 5781 5789 5794 5803 5812 5820 5826 5831 5835 5841 5846 5847 5849 5851 5853 5852 5853 5854 5855 5856 5857 5857 5856 5856 5854 5854 5852 5851 5851 5850 5849 5847 5846 5846 5844 5842 5840